TimeCST,TemperatureF,Dew PointF,Humidity,Sea Level PressureIn,VisibilityMPH,Wind Direction,Wind SpeedMPH,Gust SpeedMPH,PrecipitationIn,Events,Conditions,WindDirDegrees,DateUTC
12:08 AM,50.0,25.2,38,-9999,-9999.0,South,12.7,-,N/A,,Unknown,180,2013-03-08 06:08:00
12:28 AM,48.9,26.1,41,-9999,-9999.0,South,12.7,-,N/A,,Unknown,170,2013-03-08 06:28:00
12:48 AM,48.0,24.1,39,-9999,-9999.0,South,12.7,-,N/A,,Unknown,180,2013-03-08 06:48:00
1:08 AM,46.9,25.2,43,-9999,-9999.0,South,12.7,-,N/A,,Unknown,180,2013-03-08 07:08:00
1:28 AM,46.9,25.2,43,-9999,-9999.0,South,11.5,-,N/A,,Unknown,180,2013-03-08 07:28:00
1:48 AM,48.9,25.2,40,-9999,-9999.0,South,13.8,-,N/A,,Unknown,190,2013-03-08 07:48:00
2:08 AM,50.0,26.1,39,-9999,-9999.0,South,13.8,-,N/A,,Unknown,190,2013-03-08 08:08:00
2:28 AM,50.0,27.1,41,-9999,-9999.0,South,13.8,-,N/A,,Unknown,180,2013-03-08 08:28:00
2:48 AM,48.9,28.0,44,-9999,-9999.0,South,11.5,-,N/A,,Unknown,180,2013-03-08 08:48:00
3:08 AM,48.9,28.0,44,-9999,-9999.0,South,11.5,-,N/A,,Unknown,180,2013-03-08 09:08:00
3:28 AM,48.0,30.0,50,-9999,-9999.0,West,4.6,-,N/A,,Unknown,260,2013-03-08 09:28:00
3:48 AM,48.0,27.1,44,-9999,-9999.0,South,8.1,-,N/A,,Unknown,190,2013-03-08 09:48:00
4:08 AM,46.9,29.1,50,-9999,-9999.0,WSW,4.6,-,N/A,,Unknown,250,2013-03-08 10:08:00
4:28 AM,45.0,28.0,52,-9999,-9999.0,WSW,6.9,-,N/A,,Unknown,240,2013-03-08 10:28:00
4:48 AM,45.0,27.1,50,-9999,-9999.0,SSW,6.9,-,N/A,,Unknown,210,2013-03-08 10:48:00
5:08 AM,46.0,27.1,48,-9999,-9999.0,SW,8.1,-,N/A,,Unknown,230,2013-03-08 11:08:00
5:28 AM,46.0,26.1,46,-9999,-9999.0,SSW,9.2,-,N/A,,Unknown,200,2013-03-08 11:28:00
5:48 AM,44.1,27.1,51,-9999,-9999.0,South,9.2,-,N/A,,Unknown,170,2013-03-08 11:48:00
6:08 AM,44.1,26.1,49,-9999,-9999.0,South,10.4,-,N/A,,Unknown,190,2013-03-08 12:08:00
6:28 AM,45.0,27.1,50,-9999,-9999.0,South,10.4,-,N/A,,Unknown,180,2013-03-08 12:28:00
6:48 AM,46.0,27.1,48,-9999,-9999.0,South,9.2,-,N/A,,Unknown,190,2013-03-08 12:48:00
7:08 AM,46.0,28.0,50,-9999,-9999.0,South,9.2,-,N/A,,Unknown,180,2013-03-08 13:08:00
7:28 AM,46.0,28.0,50,-9999,-9999.0,South,6.9,-,N/A,,Unknown,190,2013-03-08 13:28:00
7:48 AM,48.0,29.1,48,-9999,-9999.0,SSW,5.8,-,N/A,,Unknown,210,2013-03-08 13:48:00
8:08 AM,-9999,-9999,N/A,-9999,-9999.0,North,-9999.0,-,N/A,,Unknown,0,2013-03-08 14:08:00
8:28 AM,48.9,30.0,48,-9999,-9999.0,West,4.6,-,N/A,,Unknown,280,2013-03-08 14:28:00
8:48 AM,50.0,29.1,45,-9999,-9999.0,SSW,4.6,-,N/A,,Unknown,210,2013-03-08 14:48:00
9:08 AM,50.0,30.0,46,-9999,-9999.0,South,5.8,-,N/A,,Unknown,180,2013-03-08 15:08:00
9:28 AM,51.1,29.1,43,-9999,-9999.0,South,5.8,-,N/A,,Unknown,180,2013-03-08 15:28:00
9:48 AM,53.1,30.0,41,-9999,-9999.0,SSW,5.8,-,N/A,,Unknown,210,2013-03-08 15:48:00
10:08 AM,55.9,30.0,37,-9999,-9999.0,SSW,6.9,-,N/A,,Unknown,210,2013-03-08 16:08:00
10:28 AM,57.9,31.1,36,-9999,-9999.0,SW,6.9,-,N/A,,Unknown,230,2013-03-08 16:28:00
10:48 AM,59.0,30.2,34,-9999,-9999.0,South,8.1,-,N/A,,Unknown,180,2013-03-08 16:48:00
11:08 AM,59.0,30.0,33,-9999,-9999.0,South,10.4,-,N/A,,Unknown,190,2013-03-08 17:08:00
11:28 AM,61.0,33.1,35,-9999,-9999.0,SSE,10.4,-,N/A,,Unknown,150,2013-03-08 17:28:00
11:48 AM,62.1,32.2,33,-9999,-9999.0,South,10.4,-,N/A,,Unknown,170,2013-03-08 17:48:00
12:08 PM,63.0,31.1,30,-9999,-9999.0,South,12.7,-,N/A,,Unknown,180,2013-03-08 18:08:00
12:28 PM,64.9,31.1,28,-9999,-9999.0,South,9.2,-,N/A,,Unknown,190,2013-03-08 18:28:00
12:48 PM,68.0,32.2,26,-9999,-9999.0,South,12.7,-,N/A,,Unknown,180,2013-03-08 18:48:00
1:08 PM,70.0,33.1,26,-9999,-9999.0,South,13.8,-,N/A,,Unknown,190,2013-03-08 19:08:00
1:28 PM,73.0,32.2,22,-9999,-9999.0,South,19.6,-,N/A,,Unknown,170,2013-03-08 19:28:00
1:48 PM,71.1,35.1,27,-9999,-9999.0,SSE,15.0,-,N/A,,Unknown,160,2013-03-08 19:48:00
2:08 PM,71.1,34.2,26,-9999,-9999.0,South,24.2,-,N/A,,Unknown,180,2013-03-08 20:08:00
2:28 PM,73.0,33.1,23,-9999,-9999.0,South,21.9,-,N/A,,Unknown,170,2013-03-08 20:28:00
2:48 PM,73.0,33.1,23,-9999,-9999.0,South,25.3,-,N/A,,Unknown,170,2013-03-08 20:48:00
3:08 PM,73.9,37.0,26,-9999,-9999.0,SSE,25.3,-,N/A,,Unknown,160,2013-03-08 21:08:00
3:28 PM,73.9,34.2,23,-9999,-9999.0,SSE,25.3,-,N/A,,Unknown,160,2013-03-08 21:28:00
3:48 PM,73.9,29.1,19,-9999,-9999.0,SSW,18.4,-,N/A,,Unknown,200,2013-03-08 21:48:00
4:08 PM,73.9,30.0,20,-9999,-9999.0,South,23.0,-,N/A,,Unknown,180,2013-03-08 22:08:00
4:28 PM,73.0,40.1,30,-9999,-9999.0,North,62.1,-,N/A,,Unknown,10,2013-03-08 22:28:00
4:48 PM,71.1,39.0,31,-9999,-9999.0,SSE,24.2,-,N/A,,Unknown,160,2013-03-08 22:48:00
5:08 PM,70.0,40.1,34,-9999,-9999.0,SSE,21.9,-,N/A,,Unknown,160,2013-03-08 23:08:00
5:28 PM,68.0,42.1,39,-9999,-9999.0,SE,21.9,-,N/A,,Unknown,140,2013-03-08 23:28:00
5:48 PM,66.9,42.1,40,-9999,-9999.0,SSE,27.6,-,N/A,,Unknown,150,2013-03-08 23:48:00
6:08 PM,66.0,43.2,43,-9999,-9999.0,SE,21.9,-,N/A,,Unknown,140,2013-03-09 00:08:00
6:28 PM,64.9,43.2,45,-9999,-9999.0,SSE,25.3,-,N/A,,Unknown,150,2013-03-09 00:28:00
6:48 PM,64.0,44.1,48,-9999,-9999.0,SE,20.7,-,N/A,,Unknown,140,2013-03-09 00:48:00
7:08 PM,63.0,44.1,50,-9999,-9999.0,SE,21.9,-,N/A,,Unknown,140,2013-03-09 01:08:00
7:28 PM,62.1,45.1,54,-9999,-9999.0,SE,21.9,-,N/A,,Unknown,140,2013-03-09 01:28:00
7:48 PM,61.0,46.0,58,-9999,-9999.0,SSE,21.9,-,N/A,,Unknown,150,2013-03-09 01:48:00
8:08 PM,60.1,46.0,60,-9999,-9999.0,SSE,18.4,-,N/A,,Unknown,160,2013-03-09 02:08:00
8:28 PM,61.0,43.2,52,-9999,-9999.0,SSW,11.5,-,N/A,,Unknown,210,2013-03-09 02:28:00
8:48 PM,59.0,46.0,62,-9999,-9999.0,SSE,21.9,-,N/A,,Unknown,160,2013-03-09 02:48:00
9:08 PM,57.9,42.1,56,-9999,-9999.0,South,16.1,-,N/A,,Unknown,180,2013-03-09 03:08:00
9:28 PM,59.0,39.0,48,-9999,-9999.0,SW,11.5,-,N/A,,Unknown,220,2013-03-09 03:28:00
9:48 PM,55.9,41.2,58,-9999,-9999.0,WSW,12.7,-,N/A,,Unknown,240,2013-03-09 03:48:00
10:08 PM,55.0,40.1,57,-9999,-9999.0,WSW,15.0,-,N/A,,Unknown,250,2013-03-09 04:08:00
10:28 PM,54.0,40.1,59,-9999,-9999.0,SW,9.2,-,N/A,,Unknown,220,2013-03-09 04:28:00
10:48 PM,54.0,41.2,62,-9999,-9999.0,SSW,6.9,-,N/A,,Unknown,200,2013-03-09 04:48:00
11:08 PM,50.0,42.1,74,-9999,-9999.0,South,6.9,-,N/A,,Unknown,170,2013-03-09 05:08:00
11:28 PM,48.9,41.2,75,-9999,-9999.0,South,6.9,-,N/A,,Unknown,170,2013-03-09 05:28:00
11:48 PM,50.0,38.1,64,-9999,-9999.0,South,8.1,-,N/A,,Unknown,190,2013-03-09 05:48:00